2015-01-04 00:03:26 r, 14.90m,0000000097Hz,0000004778c,0000000.010s,-006.8C,00002195
2015-01-04 00:13:26 r, 15.05m,0000000084Hz,0000005500c,0000000.012s,-006.8C,00002195
2015-01-04 00:23:26 r, 15.28m,0000000068Hz,0000006773c,0000000.015s,-006.8C,00002195
2015-01-04 00:33:26 r, 15.53m,0000000054Hz,0000008536c,0000000.019s,-006.8C,00002195
2015-01-04 00:43:26 r, 15.88m,0000000039Hz,0000011664c,0000000.025s,-006.8C,00002195
2015-01-04 00:53:26 r, 15.97m,0000000036Hz,0000012792c,0000000.028s,-006.8C,00002195
2015-01-04 01:03:26 r, 16.02m,0000000035Hz,0000013401c,0000000.029s,-007.1C,00002195
2015-01-04 01:13:26 r, 16.07m,0000000034Hz,0000013913c,0000000.030s,-007.1C,00002195
2015-01-04 01:23:26 r, 16.10m,0000000033Hz,0000014299c,0000000.031s,-007.1C,00002195
2015-01-04 01:33:26 r, 16.11m,0000000031Hz,0000014476c,0000000.031s,-006.8C,00002195
2015-01-04 01:43:26 r, 16.15m,0000000031Hz,0000015009c,0000000.033s,-006.8C,00002195
2015-01-04 01:53:26 r, 16.19m,0000000029Hz,0000015561c,0000000.034s,-006.8C,00002195
2015-01-04 02:03:26 r, 16.20m,0000000029Hz,0000015688c,0000000.034s,-006.8C,00002195
2015-01-04 02:13:26 r, 16.23m,0000000028Hz,0000016155c,0000000.035s,-006.8C,00002195
2015-01-04 02:23:26 r, 16.25m,0000000028Hz,0000016604c,0000000.036s,-006.8C,00002195
2015-01-04 02:33:26 r, 16.26m,0000000028Hz,0000016739c,0000000.036s,-007.1C,00002195
2015-01-04 02:43:26 r, 16.29m,0000000027Hz,0000017154c,0000000.037s,-007.1C,00002195
2015-01-04 02:53:26 r, 16.29m,0000000027Hz,0000017255c,0000000.037s,-007.1C,00002195
2015-01-04 03:03:26 r, 16.33m,0000000027Hz,0000017697c,0000000.038s,-007.1C,00002195
2015-01-04 03:13:26 r, 16.33m,0000000026Hz,0000017911c,0000000.039s,-007.5C,00002195
2015-01-04 03:23:26 r, 16.35m,0000000026Hz,0000018075c,0000000.039s,-007.5C,00002195
2015-01-04 03:33:26 r, 16.35m,0000000025Hz,0000018125c,0000000.039s,-007.5C,00002195
2015-01-04 03:43:26 r, 16.25m,0000000028Hz,0000016602c,0000000.036s,-007.8C,00002195
2015-01-04 03:53:26 r, 15.96m,0000000037Hz,0000012638c,0000000.027s,-007.8C,00002195
2015-01-04 04:03:26 r, 15.91m,0000000038Hz,0000011977c,0000000.026s,-007.8C,00002195
2015-01-04 04:13:26 r, 15.99m,0000000035Hz,0000012980c,0000000.028s,-007.8C,00002195
2015-01-04 04:23:26 r, 16.25m,0000000028Hz,0000016449c,0000000.036s,-007.5C,00002195
2015-01-04 04:33:26 r, 16.28m,0000000027Hz,0000017006c,0000000.037s,-007.5C,00002195
2015-01-04 04:43:26 r, 16.20m,0000000029Hz,0000015752c,0000000.034s,-007.5C,00002195
2015-01-04 04:53:26 r, 16.47m,0000000023Hz,0000020230c,0000000.044s,-007.5C,00002195
2015-01-04 05:03:26 r, 16.48m,0000000023Hz,0000020414c,0000000.044s,-007.8C,00002195
2015-01-04 05:13:26 r, 16.52m,0000000022Hz,0000021028c,0000000.046s,-007.8C,00002195
2015-01-04 05:23:26 r, 16.52m,0000000022Hz,0000021013c,0000000.046s,-007.8C,00002195
2015-01-04 05:33:26 r, 16.53m,0000000022Hz,0000021403c,0000000.046s,-008.1C,00002195
2015-01-04 05:43:26 r, 16.57m,0000000021Hz,0000022047c,0000000.048s,-008.1C,00002195
2015-01-04 05:53:26 r, 16.43m,0000000024Hz,0000019491c,0000000.042s,-008.1C,00002195
2015-01-04 06:03:26 r, 16.48m,0000000022Hz,0000020381c,0000000.044s,-008.4C,00002195
2015-01-04 06:13:26 r, 16.29m,0000000027Hz,0000017126c,0000000.037s,-008.4C,00002195
2015-01-04 06:23:26 r, 16.34m,0000000026Hz,0000017948c,0000000.039s,-008.4C,00002195
2015-01-04 06:33:26 r, 16.55m,0000000021Hz,0000021712c,0000000.047s,-008.8C,00002195
2015-01-04 06:43:26 r, 16.57m,0000000021Hz,0000022049c,0000000.048s,-008.8C,00002195
2015-01-04 06:53:26 r, 16.66m,0000000019Hz,0000023914c,0000000.052s,-008.8C,00002195
2015-01-04 07:03:26 r, 16.70m,0000000018Hz,0000024780c,0000000.054s,-008.8C,00002195
2015-01-04 07:13:26 r, 16.59m,0000000020Hz,0000022524c,0000000.049s,-008.8C,00002195
2015-01-04 07:23:26 r, 16.29m,0000000027Hz,0000016968c,0000000.037s,-009.1C,00002195
2015-01-04 07:33:26 r, 15.42m,0000000059Hz,0000007711c,0000000.017s,-009.1C,00002195
2015-01-04 07:43:26 r, 13.87m,0000000252Hz,0000000000c,0000000.000s,-009.1C,00002195
2015-01-04 07:53:26 r, 12.10m,0000001282Hz,0000000000c,0000000.000s,-009.4C,00002195
2015-01-04 08:03:26 r, 10.38m,0000006279Hz,0000000000c,0000000.000s,-009.4C,00002195
2015-01-04 08:13:26 r, 08.85m,0000025813Hz,0000000000c,0000000.000s,-009.4C,00002195
2015-01-04 08:23:26 r, 07.70m,0000074027Hz,0000000000c,0000000.000s,-009.7C,00002195
2015-01-04 08:33:26 r, 06.90m,0000154719Hz,0000000000c,0000000.000s,-009.7C,00002195
2015-01-04 08:43:26 r, 06.33m,0000261464Hz,0000000000c,0000000.000s,-009.7C,00002195
2015-01-04 08:53:26 r, 05.92m,0000382025Hz,0000000000c,0000000.000s,-009.7C,00002195
2015-01-04 09:03:26 r, 00.00m,0000503733Hz,0000000000c,0000000.000s,-010.0C,00002195
2015-01-04 09:13:26 r, 00.00m,0000558810Hz,0000000000c,0000000.000s,-010.0C,00002195
2015-01-04 09:23:26 r, 00.00m,0000558924Hz,0000000000c,0000000.000s,-010.0C,00002195
2015-01-04 09:33:26 r, 00.00m,0000558974Hz,0000000000c,0000000.000s,-009.4C,00002195
2015-01-04 09:43:26 r, 00.00m,0000559175Hz,0000000000c,0000000.000s,-008.1C,00002195
2015-01-04 09:53:26 r, 00.00m,0000559502Hz,0000000000c,0000000.000s,-006.8C,00002195
2015-01-04 10:03:26 r, 00.00m,0000559659Hz,0000000000c,0000000.000s,-005.9C,00002195
2015-01-04 10:13:26 r, 00.00m,0000559833Hz,0000000000c,0000000.000s,-004.6C,00002195
2015-01-04 10:23:26 r, 00.00m,0000559860Hz,0000000000c,0000000.000s,-004.2C,00002195
2015-01-04 10:33:26 r, 00.00m,0000560075Hz,0000000000c,0000000.000s,-003.3C,00002195
2015-01-04 10:43:26 r, 00.00m,0000560146Hz,0000000000c,0000000.000s,-003.0C,00002195
2015-01-04 10:53:26 r, 00.00m,0000560143Hz,0000000000c,0000000.000s,-002.6C,00002195
2015-01-04 11:03:26 r, 00.00m,0000560234Hz,0000000000c,0000000.000s,-002.3C,00002195
2015-01-04 11:13:26 r, 00.00m,0000560294Hz,0000000000c,0000000.000s,-002.3C,00002195
2015-01-04 11:23:26 r, 00.00m,0000560248Hz,0000000000c,0000000.000s,-002.3C,00002195
2015-01-04 11:33:26 r, 00.00m,0000560275Hz,0000000000c,0000000.000s,-002.0C,00002195
2015-01-04 11:43:26 r, 00.00m,0000560308Hz,0000000000c,0000000.000s,-002.0C,00002195
2015-01-04 11:53:26 r, 00.00m,0000560309Hz,0000000000c,0000000.000s,-002.3C,00002195
2015-01-04 12:03:26 r, 00.00m,0000560445Hz,0000000000c,0000000.000s,-002.3C,00002195
2015-01-04 12:13:26 r, 00.00m,0000560337Hz,0000000000c,0000000.000s,-001.7C,00002195
2015-01-04 12:23:26 r, 00.00m,0000560380Hz,0000000000c,0000000.000s,-001.3C,00002195
2015-01-04 12:33:26 r, 00.00m,0000560476Hz,0000000000c,0000000.000s,-001.3C,00002195
2015-01-04 12:43:26 r, 00.00m,0000560441Hz,0000000000c,0000000.000s,-001.3C,00002195
2015-01-04 12:53:26 r, 00.00m,0000560535Hz,0000000000c,0000000.000s,-000.7C,00002195
2015-01-04 13:03:26 r, 00.00m,0000560605Hz,0000000000c,0000000.000s,-000.4C,00002195
2015-01-04 13:13:26 r, 00.00m,0000560720Hz,0000000000c,0000000.000s,-000.4C,00002195
2015-01-04 13:23:26 r, 00.00m,0000560678Hz,0000000000c,0000000.000s,-000.4C,00002195
2015-01-04 13:33:26 r, 00.00m,0000560599Hz,0000000000c,0000000.000s,-000.4C,00002195
2015-01-04 13:43:26 r, 00.00m,0000560578Hz,0000000000c,0000000.000s, 000.1C,00002195
2015-01-04 13:53:26 r, 00.00m,0000560577Hz,0000000000c,0000000.000s,-000.4C,00002195
2015-01-04 14:03:26 r, 00.00m,0000560304Hz,0000000000c,0000000.000s,-001.3C,00002195
2015-01-04 14:13:26 r, 00.00m,0000560193Hz,0000000000c,0000000.000s,-002.6C,00002195
2015-01-04 14:23:26 r, 00.00m,0000559834Hz,0000000000c,0000000.000s,-003.6C,00002195
2015-01-04 14:33:26 r, 00.00m,0000559687Hz,0000000000c,0000000.000s,-004.6C,00002195
2015-01-04 14:43:26 r, 00.00m,0000559597Hz,0000000000c,0000000.000s,-005.2C,00002195
2015-01-04 14:53:26 r, 00.00m,0000559513Hz,0000000000c,0000000.000s,-005.5C,00002195
2015-01-04 15:03:26 r, 00.00m,0000559510Hz,0000000000c,0000000.000s,-005.9C,00002195
2015-01-04 15:13:26 r, 00.00m,0000559518Hz,0000000000c,0000000.000s,-005.9C,00002195
2015-01-04 15:23:26 r, 00.00m,0000559600Hz,0000000000c,0000000.000s,-006.2C,00002195
2015-01-04 15:33:26 r, 00.00m,0000559578Hz,0000000000c,0000000.000s,-006.2C,00002195
2015-01-04 15:43:26 r, 00.00m,0000559604Hz,0000000000c,0000000.000s,-006.5C,00002195
2015-01-04 15:53:26 r, 00.00m,0000559550Hz,0000000000c,0000000.000s,-006.5C,00002195
2015-01-04 16:03:26 r, 00.00m,0000488578Hz,0000000000c,0000000.000s,-006.5C,00002195
2015-01-04 16:13:26 r, 05.94m,0000373294Hz,0000000000c,0000000.000s,-006.5C,00002195
2015-01-04 16:23:26 r, 06.34m,0000259120Hz,0000000000c,0000000.000s,-006.8C,00002195
2015-01-04 16:33:26 r, 06.88m,0000158570Hz,0000000000c,0000000.000s,-006.8C,00002195
2015-01-04 16:43:26 r, 07.65m,0000077521Hz,0000000000c,0000000.000s,-006.8C,00002195
2015-01-04 16:53:26 r, 08.78m,0000027464Hz,0000000000c,0000000.000s,-006.8C,00002195
2015-01-04 17:03:26 r, 10.24m,0000007109Hz,0000000000c,0000000.000s,-006.8C,00002195
2015-01-04 17:13:26 r, 11.97m,0000001445Hz,0000000000c,0000000.000s,-006.8C,00002195
2015-01-04 17:23:26 r, 13.79m,0000000271Hz,0000000000c,0000000.000s,-007.1C,00002195
2015-01-04 17:33:26 r, 15.40m,0000000062Hz,0000007516c,0000000.016s,-007.1C,00002195
2015-01-04 17:43:26 r, 16.25m,0000000028Hz,0000016430c,0000000.036s,-007.1C,00002195
2015-01-04 17:53:26 r, 16.55m,0000000021Hz,0000021804c,0000000.047s,-007.1C,00002195
2015-01-04 18:03:26 r, 16.67m,0000000019Hz,0000024216c,0000000.053s,-007.1C,00002195
2015-01-04 18:13:26 r, 16.69m,0000000019Hz,0000024689c,0000000.054s,-007.1C,00002195
2015-01-04 18:23:26 r, 16.69m,0000000018Hz,0000024807c,0000000.054s,-007.1C,00002195
2015-01-04 18:33:26 r, 16.67m,0000000019Hz,0000024160c,0000000.052s,-007.1C,00002195
2015-01-04 18:43:26 r, 16.66m,0000000019Hz,0000023964c,0000000.052s,-007.5C,00002195
2015-01-04 18:53:26 r, 16.65m,0000000019Hz,0000023904c,0000000.052s,-007.5C,00002195
2015-01-04 19:03:26 r, 16.65m,0000000020Hz,0000023894c,0000000.052s,-007.5C,00002195
2015-01-04 19:13:26 r, 16.65m,0000000020Hz,0000023850c,0000000.052s,-007.5C,00002195
2015-01-04 19:23:26 r, 16.64m,0000000020Hz,0000023451c,0000000.051s,-007.5C,00002195
2015-01-04 19:33:26 r, 16.53m,0000000022Hz,0000021249c,0000000.046s,-007.5C,00002195
2015-01-04 19:43:26 r, 16.61m,0000000020Hz,0000022972c,0000000.050s,-007.5C,00002195
2015-01-04 19:53:26 r, 16.59m,0000000020Hz,0000022410c,0000000.049s,-007.5C,00002195
2015-01-04 20:03:26 r, 16.44m,0000000023Hz,0000019651c,0000000.043s,-007.5C,00002195
2015-01-04 20:13:26 r, 16.42m,0000000023Hz,0000019453c,0000000.042s,-007.5C,00002195
2015-01-04 20:23:26 r, 16.41m,0000000024Hz,0000019122c,0000000.041s,-007.5C,00002195
2015-01-04 20:33:26 r, 16.40m,0000000025Hz,0000018963c,0000000.041s,-007.5C,00002195
2015-01-04 20:43:26 r, 16.37m,0000000025Hz,0000018344c,0000000.040s,-007.5C,00002195
2015-01-04 20:53:26 r, 16.35m,0000000026Hz,0000018068c,0000000.039s,-007.5C,00002195
2015-01-04 21:03:26 r, 16.31m,0000000026Hz,0000017448c,0000000.038s,-007.5C,00002195
2015-01-04 21:13:26 r, 16.28m,0000000028Hz,0000016969c,0000000.037s,-007.5C,00002195
2015-01-04 21:23:26 r, 16.23m,0000000029Hz,0000016223c,0000000.035s,-007.5C,00002195
2015-01-04 21:33:26 r, 16.17m,0000000030Hz,0000015342c,0000000.033s,-007.5C,00002195
2015-01-04 21:43:26 r, 16.02m,0000000034Hz,0000013298c,0000000.029s,-007.5C,00002195
2015-01-04 21:53:26 r, 15.83m,0000000041Hz,0000011187c,0000000.024s,-007.5C,00002195
2015-01-04 22:03:26 r, 15.67m,0000000048Hz,0000009654c,0000000.021s,-007.5C,00002195
2015-01-04 22:13:26 r, 15.64m,0000000049Hz,0000009391c,0000000.020s,-007.5C,00002195
2015-01-04 22:23:26 r, 15.43m,0000000060Hz,0000007727c,0000000.017s,-007.1C,00002195
2015-01-04 22:33:26 r, 15.33m,0000000065Hz,0000007053c,0000000.015s,-007.5C,00002195
2015-01-04 22:43:26 r, 15.24m,0000000071Hz,0000006471c,0000000.014s,-007.5C,00002195
2015-01-04 22:53:26 r, 15.16m,0000000075Hz,0000006037c,0000000.013s,-007.1C,00002195
2015-01-04 23:03:26 r, 15.10m,0000000081Hz,0000005704c,0000000.012s,-007.1C,00002195
2015-01-04 23:13:26 r, 15.02m,0000000086Hz,0000005322c,0000000.012s,-007.1C,00002195
2015-01-04 23:23:26 r, 14.97m,0000000092Hz,0000005061c,0000000.011s,-007.1C,00002195
2015-01-04 23:33:26 r, 14.88m,0000000098Hz,0000004696c,0000000.010s,-007.1C,00002195
2015-01-04 23:43:26 r, 14.80m,0000000105Hz,0000004334c,0000000.009s,-006.8C,00002195
2015-01-04 23:53:26 r, 14.77m,0000000109Hz,0000004199c,0000000.009s,-006.8C,00002195
